Change the Weather History Date:

Wednesday, December 26, 2012

  Actual Average Record
Temperature  
Mean Temperature 2 °F -  
Max Temperature 12 °F 17 °F 42 °F (2011)
Min Temperature -9 °F 1 °F -31 °F (1996)
Degree Days  
Heating Degree Days 64    
Moisture  
Dew Point -3 °F    
Average Humidity 80    
Maximum Humidity 85    
Minimum Humidity 71    
Precipitation  
Precipitation 0.00 in - - ()
Sea Level Pressure  
Sea Level Pressure 30.28 in    
Wind  
Wind Speed 0 mph (NE)    
Max Wind Speed 5 mph    
Max Gust Speed -    
Visibility 10 miles    
Events Snow    
Averages and records for this station are not official NWS values.
T = Trace of Precipitation, MM = Missing Value Source: NWS Daily Summary

Daily Weather History Graph

Daily Weather History Graph

Search for Another Location

Airport or City:

Trip Planner

Search our weather history database for the weather conditions in past years. The results will help you decide how hot, cold, wet, or windy it might be!

Date:

Astronomy

Dec. 26, 2012 Rise Set
Actual Time 7:56 AM CST 4:25 PM CST
Civil Twilight 7:20 AM CST 5:00 PM CST
Nautical Twilight 6:41 AM CST 5:40 PM CST
Astronomical Twilight 6:04 AM CST 6:17 PM CST
Moon 3:20 PM CST (12/26) 6:18 AM CST (12/26)
Length of Visible Light 9h 40m
Length of Day
8h 28m
Waxing Gibbous, 97% of the Moon is Illuminated
Dec 26
Waxing Gibbous
Dec 28
Full
Jan 4
Last Quarter
Jan 11
New
Jan 18
First Quarter

Hourly Weather History & Observations

Time (CST) Temp. Windchill Dew Point Humidity Pressure Visibility Wind Dir Wind Speed Gust Speed Precip Events Conditions
12:09 AM -9.4 °F - -14.8 °F 77% 30.34 in 10.0 mi Calm Calm - N/A   Clear
12:30 AM -7.6 °F - -14.8 °F 71% 30.34 in 10.0 mi Calm Calm - N/A   Clear
12:50 AM -7.6 °F - -13.0 °F 77% 30.34 in 10.0 mi Calm Calm - N/A   Clear
1:09 AM -7.6 °F - -13.0 °F 77% 30.33 in 10.0 mi Calm Calm - N/A   Clear
1:30 AM -7.6 °F - -13.0 °F 77% 30.33 in 10.0 mi Calm Calm - N/A   Clear
1:49 AM -7.6 °F - -13.0 °F 77% 30.33 in 10.0 mi Calm Calm - N/A   Clear
2:09 AM -7.6 °F - -13.0 °F 77% 30.34 in 10.0 mi Calm Calm - N/A   Clear
2:30 AM -7.6 °F - -13.0 °F 77% 30.34 in 10.0 mi Calm Calm - N/A   Clear
2:50 AM -7.6 °F - -13.0 °F 77% 30.34 in 10.0 mi Calm Calm - N/A   Clear
3:09 AM -7.6 °F - -13.0 °F 77% 30.34 in 10.0 mi Calm Calm - N/A   Clear
3:30 AM -7.6 °F - -14.8 °F 71% 30.34 in 10.0 mi Calm Calm - N/A   Clear
3:49 AM -9.4 °F - -14.8 °F 77% 30.33 in 10.0 mi Calm Calm - N/A   Clear
4:10 AM -7.6 °F - -13.0 °F 77% 30.32 in 10.0 mi Calm Calm - N/A   Clear
4:29 AM -7.6 °F - -13.0 °F 77% 30.32 in 10.0 mi Calm Calm - N/A   Scattered Clouds
4:49 AM -5.8 °F - -11.2 °F 77% 30.32 in 1.5 mi Calm Calm - N/A Snow Light Snow
5:10 AM -5.8 °F - -9.4 °F 84% 30.32 in 5.0 mi Calm Calm - N/A   Haze
5:29 AM -5.8 °F - -9.4 °F 84% 30.32 in 2.0 mi Calm Calm - N/A   Overcast
5:49 AM -5.8 °F - -9.4 °F 84% 30.32 in 10.0 mi Calm Calm - N/A   Overcast
6:10 AM -4.0 °F - -9.4 °F 78% 30.32 in 5.0 mi Calm Calm - N/A Snow Light Snow
6:29 AM -2.2 °F - -7.6 °F 78% 30.32 in 10.0 mi Calm Calm - N/A   Overcast
6:50 AM -2.2 °F - -7.6 °F 78% 30.31 in 10.0 mi Calm Calm - N/A   Overcast
7:09 AM -2.2 °F - -7.6 °F 78% 30.31 in 10.0 mi Calm Calm - N/A   Overcast
7:30 AM -2.2 °F - -7.6 °F 78% 30.31 in 10.0 mi Calm Calm - N/A   Scattered Clouds
7:50 AM -0.4 °F - -4.0 °F 85% 30.31 in 10.0 mi Calm Calm - N/A   Scattered Clouds
8:09 AM -0.4 °F - -4.0 °F 85% 30.31 in 10.0 mi Calm Calm - N/A   Mostly Cloudy
8:30 AM 1.4 °F - -4.0 °F 78% 30.31 in 10.0 mi Calm Calm - N/A   Overcast
8:49 AM 1.4 °F - -4.0 °F 78% 30.31 in 10.0 mi Calm Calm - N/A   Overcast
9:10 AM 3.2 °F - -2.2 °F 78% 30.31 in 10.0 mi Calm Calm - N/A   Overcast
9:29 AM 3.2 °F - -2.2 °F 78% 30.31 in 10.0 mi Calm Calm - N/A   Overcast
9:49 AM 3.2 °F - -2.2 °F 78% 30.31 in 10.0 mi Calm Calm - N/A   Overcast
10:10 AM 3.2 °F - -0.4 °F 85% 30.30 in 10.0 mi Calm Calm - N/A   Overcast
10:30 AM 3.2 °F - -0.4 °F 85% 30.30 in 10.0 mi Calm Calm - N/A   Scattered Clouds
10:49 AM 5.0 °F - 1.4 °F 85% 30.29 in 10.0 mi Calm Calm - N/A   Scattered Clouds
11:10 AM 5.0 °F - 1.4 °F 85% 30.28 in 10.0 mi Calm Calm - N/A   Scattered Clouds
11:30 AM 5.0 °F - 1.4 °F 85% 30.27 in 10.0 mi Calm Calm - N/A   Scattered Clouds
11:49 AM 6.8 °F - 1.4 °F 79% 30.27 in 10.0 mi Calm Calm - N/A   Clear
12:10 PM 6.8 °F - 1.4 °F 79% 30.26 in 10.0 mi Calm Calm - N/A   Scattered Clouds
12:29 PM 8.6 °F - 3.2 °F 79% 30.26 in 10.0 mi Calm Calm - N/A   Mostly Cloudy
12:50 PM 10.4 °F - 3.2 °F 73% 30.25 in 10.0 mi Calm Calm - N/A   Scattered Clouds
1:10 PM 10.4 °F - 3.2 °F 73% 30.25 in 10.0 mi Calm Calm - N/A   Scattered Clouds
1:29 PM 12.2 °F - 5.0 °F 73% 30.25 in 10.0 mi Calm Calm - N/A   Mostly Cloudy
1:50 PM 12.2 °F - 5.0 °F 73% 30.25 in 10.0 mi Calm Calm - N/A   Overcast
2:10 PM 12.2 °F - 5.0 °F 73% 30.25 in 10.0 mi Calm Calm - N/A   Scattered Clouds
2:29 PM - - - N/A% 30.25 in 10.0 mi Calm Calm - N/A   Clear
2:50 PM 12.2 °F - 5.0 °F 73% 30.25 in 10.0 mi Calm Calm - N/A   Clear
3:10 PM 12.2 °F - 5.0 °F 73% 30.25 in 10.0 mi Calm Calm - N/A   Clear
3:29 PM 12.2 °F - 5.0 °F 73% 30.26 in 10.0 mi Calm Calm - N/A   Clear
3:49 PM 12.2 °F - 5.0 °F 73% 30.25 in 10.0 mi Calm Calm - N/A   Clear
4:10 PM 12.2 °F - 5.0 °F 73% 30.25 in 10.0 mi Calm Calm - N/A   Clear
4:29 PM 10.4 °F - 5.0 °F 79% 30.26 in 10.0 mi Calm Calm - N/A   Clear
4:49 PM 8.6 °F - 3.2 °F 79% 30.26 in 10.0 mi Calm Calm - N/A   Scattered Clouds
5:10 PM 8.6 °F - 3.2 °F 79% 30.26 in 10.0 mi Calm Calm - N/A   Mostly Cloudy
5:29 PM 8.6 °F - 3.2 °F 79% 30.25 in 10.0 mi Calm Calm - N/A   Overcast
5:50 PM 6.8 °F - 3.2 °F 85% 30.25 in 10.0 mi Calm Calm - N/A   Scattered Clouds
6:09 PM 3.2 °F - -0.4 °F 85% 30.25 in 10.0 mi Calm Calm - N/A   Clear
6:30 PM 3.2 °F - -0.4 °F 85% 30.24 in 10.0 mi Calm Calm - N/A   Clear
6:50 PM 3.2 °F - -0.4 °F 85% 30.24 in 10.0 mi Calm Calm - N/A   Clear
7:09 PM -0.4 °F - -4.0 °F 85% 30.25 in 10.0 mi Calm Calm - N/A   Clear
7:30 PM 3.2 °F - -0.4 °F 85% 30.25 in 10.0 mi Calm Calm - N/A   Mostly Cloudy
7:50 PM 3.2 °F - -0.4 °F 85% 30.25 in 10.0 mi Calm Calm - N/A   Overcast
8:09 PM 1.4 °F - -2.2 °F 85% 30.24 in 10.0 mi Calm Calm - N/A   Mostly Cloudy
8:30 PM -0.4 °F -8.3 °F -4.0 °F 85% 30.24 in 10.0 mi NNE 3.5 mph - N/A   Overcast
8:50 PM 1.4 °F - -2.2 °F 85% 30.24 in 10.0 mi Calm Calm - N/A   Overcast
9:09 PM 3.2 °F - -0.4 °F 85% 30.25 in 10.0 mi Calm Calm - N/A   Overcast
9:30 PM 3.2 °F - -0.4 °F 85% 30.24 in 10.0 mi Calm Calm - N/A   Overcast
9:49 PM 3.2 °F - -0.4 °F 85% 30.24 in 10.0 mi Calm Calm - N/A   Overcast
10:09 PM 5.0 °F - 1.4 °F 85% 30.24 in 10.0 mi Calm Calm - N/A   Overcast
10:29 PM 6.8 °F -2.0 °F 3.2 °F 85% 30.24 in 10.0 mi NE 4.6 mph - N/A   Overcast
10:49 PM - - - N/A% - 10.0 mi ENE 4.6 mph - N/A   Unknown
11:10 PM 10.4 °F 4.0 °F 6.8 °F 85% 30.24 in 10.0 mi NE 3.5 mph - N/A   Overcast
11:29 PM 10.4 °F 4.0 °F 6.8 °F 85% 30.23 in 10.0 mi ENE 3.5 mph - N/A   Overcast
11:49 PM 10.4 °F 4.0 °F 6.8 °F 85% 30.23 in 10.0 mi NE 3.5 mph - N/A   Overcast